{"data":{"norad_id":66771,"epoch":"2026-05-25T02:43:31.977120Z","epoch_age_seconds":69241,"freshness":"FRESH","line1":"1 66771U 25276DK  26145.11356455  .00005051  00000+0  23465-3 0  9990","line2":"2 66771  97.4238 219.3792 0001135  33.9141 326.2167 15.20439303 26933","mean_motion":15.20439303,"eccentricity":0.0001135,"inclination_deg":97.4238,"raan_deg":219.3792,"arg_perigee_deg":33.9141,"mean_anomaly_deg":326.2167,"bstar":0.00023465,"rev_number":2693,"period_min":94.709469635435,"perigee_km":503.73336969892,"apogee_km":505.29573160091,"semimajor_km":6882.6515506499,"source":"CELESTRAK","updated_at":"2026-05-25T13:38:06.476899Z"}}